Regional Weather Roundup
Issued by NWS

Home | Current Version | Previous Version | Graphics & Text | Print | Product List | Glossary On
Versions: 1 2 3 4 5 6 7 8 9 10 11 12 13 14 15 16 17 18 19 20 21 22 23 24 25 26 27 28 29 30 31 32 33 34 35 36 37 38 39 40 41 42 43 44 45 46 47 48 49 50
490
ASUS44 KJAN 291310
RWRMS

MISSISSIPPI HOURLY WEATHER ROUNDUP
NATIONAL WEATHER SERVICE JACKSON MS
800 AM CDT TUE JUL 29 2014

NOTE: "FAIR: INDICATES FEW OR NO CLOUDS BELOW 12,000 FEET WITH NO
SIGNIFICANT WEATHER AND/OR OBSTRUCTIONS TO VISIBILITY.

MSZ001>002-007>008-010>013-018>021-025>028-034>036-291400-
NORTHWEST MISSISSIPPI

CITY           SKY/WX    TMP DP  RH WIND       PRES   REMARKS
CLARKSDALE     CLOUDY    70  66  88 N9        30.12R
CLEVELAND      FAIR      72  68  88 NE12      30.10R
GREENWOOD      PTSUNNY   70  68  93 CALM      30.09R
GREENVILLE     SUNNY     73  68  84 N5        30.09R
GRENADA        CLOUDY    70  64  83 NE5       30.11R
OLIVE BRANCH   MOSUNNY   66  63  88 NE9       30.13R
OXFORD         PTSUNNY   66  61  82 NE6       30.13R
TUNICA         SUNNY     70  63  78 NE12      30.13R
$$

MSZ003>006-009-014>017-022>024-029>033-037>039-291400-
NORTHEAST MISSISSIPPI

CITY           SKY/WX    TMP DP  RH WIND       PRES   REMARKS
BELMONT        PTSUNNY   66  61  83 N8        30.10R
COLUMBUS AFB   MOSUNNY   69  64  84 N6        30.08R
CORINTH        FAIR      66  59  77 N3        30.11R
GOLDN TRIANGLE MOSUNNY   72  63  73 N6        30.09R
STARKVILLE     FAIR      70  64  83 N3        30.09R
TUPELO         PTSUNNY   69  62  78 NE8       30.09R
$$

MSZ040-058-291400-
CENTRAL MISSISSIPPI

CITY           SKY/WX    TMP DP  RH WIND       PRES   REMARKS
JACKSON INTL   SUNNY     72  67  84 CALM      30.09R
JACKSON HAWKNS SUNNY     72  65  78 CALM      30.09R
MERIDIAN KEY   SUNNY     72  64  76 CALM      30.08R
MERIDIAN NAS   MOSUNNY   72  65  78 CALM      30.08R
RAYMOND        FAIR      70  64  83 CALM      30.09S
VICKSBURG      SUNNY     72  68  87 CALM      30.09R
$$

MSZ059>079-291400-
SOUTH MISSISSIPPI

CITY           SKY/WX    TMP DP  RH WIND       PRES   REMARKS
BROOKHAVEN     FAIR      72  68  88 CALM      30.09S
COLUMBIA       FAIR      72  68  88 CALM      30.06S
HATTIESBURG    SUNNY     75  67  76 N3        30.07S
MCCOMB         MOSUNNY   74  66  76 N3        30.08R
NATCHEZ        SUNNY     72  66  83 CALM      30.10R
PINE BELT      SUNNY     73  64  73 N6        30.08S
$$

MSZ080>082-291400-
COASTAL MISSISSIPPI

CITY           SKY/WX    TMP DP  RH WIND       PRES   REMARKS
BAY ST LOUIS   SUNNY    N/A N/A N/A NE7       30.05R
BILOXI         MOSUNNY   76  67  73 NE7       30.05R
PASCAGOULA     SUNNY     76  69  79 N6        30.04R
GULFPORT       MOSUNNY   81  67  62 NE7       30.04R
$$



USA.gov is the U.S. government's official web portal to all federal, state and local government web resources and services.